User: anonymous   Login
Location: Ash Swamp
(41.5170°N, 74.6157°W)
Time: 01:16:32
(UTC+00:00)
Language:

Cosmos 1500 - Orbit

View from above orbital plane
View from above orbital plane
View from above satellite
View from above satellite

Ground track
Ground track

The orbit data is extracted from the following two-line orbital elements,

1 14372U 83099A   20272.54387456 +.00001235 +00000-0 +57585-4 0  9996
2 14372 082.5146 236.9855 0013612 228.3391 248.0547 15.18856508019449
Epoch (UTC): 28 September 2020 13:03:10
Eccentricity: 0.0013612
inclination: 82.5146°
perigee height: 500 km
apogee height: 518 km
right ascension of ascending node: 236.9855°
argument of perigee: 228.3391°
revolutions per day: 15.18856508
mean anomaly at epoch: 248.0547°
orbit number at epoch: 1944

The dashed part of the orbit path shows where the satellite is in the earth's shadow,  

DLR